1500760800.27,44723,22.94,74434.3,7.97,-9.97,-9.83,0,*77
1500760801.46,44724,22.94,74432.8,7.97,-9.89,-9.75,0,*76
1500760802.66,44725,22.94,74432.8,7.97,-10.09,-10.01,0,*7C
1500760803.88,44726,22.94,74436.8,7.97,-10.09,-9.83,0,*4D
1500760805.09,44727,22.94,74438.8,7.97,-9.97,-9.83,0,*73
1500760806.28,44728,22.94,74438.3,7.97,-9.97,-9.75,0,*75
1500760807.51,44729,22.94,74438.8,7.95,-10.01,-10.01,0,*7A
1500760808.72,44730,22.94,74438.0,7.95,-10.01,-9.89,0,*4A
1500760809.94,44731,22.88,74434.5,7.95,-10.01,-9.89,0,*4B
1500760811.18,44732,22.88,74430.5,7.97,-9.83,-9.83,0,*72
1500760812.4,44733,22.88,74434.5,7.95,-10.05,-10.01,0,*75
1500760813.64,44734,22.94,74438.0,7.97,-9.83,-9.83,0,*74
1500760814.83,44735,22.88,74432.0,7.97,-9.97,-10.09,0,*4A
1500760816.02,44736,22.88,74434.8,7.97,-9.97,-9.97,0,*76
1500760817.23,44737,22.88,74438.5,7.97,-9.75,-9.61,0,*72
1500760818.43,44738,22.88,74434.5,7.97,-9.75,-9.75,0,*78
1500760819.64,44739,22.94,74432.3,7.99,-9.75,-9.89,0,*74
1500760820.84,44740,22.94,74436.3,7.99,-9.89,-9.89,0,*79
1500760822.05,44741,22.88,74428.5,7.99,-9.89,-9.97,0,*77
1500760823.25,44742,22.88,74430.3,7.99,-9.89,-9.97,0,*74
1500760824.46,44743,22.88,74434.0,7.99,-9.89,-10.05,0,*46
1500760825.67,44744,22.94,74434.3,8.01,-9.83,-9.79,0,*76
1500760826.88,44745,22.94,74432.5,8.01,-9.83,-9.97,0,*77
1500760828.07,44746,22.88,74430.5,8.01,-9.79,-9.79,0,*71
1500760829.29,44747,22.88,74430.5,7.99,-9.97,-10.01,0,*49
1500760830.5,44748,22.88,74428.0,7.99,-9.89,-9.93,0,*7A
1500760831.72,44749,22.88,74432.0,8.01,-9.79,-9.83,0,*7B
1500760832.93,44750,22.94,74434.8,8.01,-9.83,-10.09,0,*4C
1500760834.12,44751,22.88,74428.3,8.01,-10.05,-10.23,0,*73
1500760835.31,44752,22.88,74434.3,8.01,-9.93,-10.05,0,*43
1500760836.51,44753,22.88,74432.3,8.01,-10.05,-10.23,0,*71
1500760837.7,44754,22.88,74430.8,8.01,-10.09,-10.23,0,*7A
1500760838.9,44755,22.94,74432.3,8.01,-9.97,-10.19,0,*4D
1500760840.09,44756,22.94,74432.8,8.01,-9.97,-10.23,0,*47
1500760841.31,44757,22.94,74432.5,8.03,-9.89,-10.15,0,*4E
1500760842.53,44758,22.88,74428.5,8.03,-9.93,-10.23,0,*4F
1500760843.76,44759,22.88,74428.0,8.03,-10.15,-10.31,0,*7B
1500760845.0,44760,22.94,74434.0,8.03,-10.19,-10.35,0,*79
1500760846.22,44761,22.88,74428.8,8.03,-10.01,-10.23,0,*76
1500760847.45,44762,22.88,74432.8,8.03,-10.01,-10.19,0,*7C
1500760848.65,44763,22.88,74432.8,8.01,-10.09,-10.35,0,*79
1500760849.89,44764,22.88,74430.5,8.03,-10.19,-10.35,0,*7D
1500760851.12,44765,22.88,74428.5,8.03,-10.15,-10.45,0,*77
1500760852.35,44766,22.88,74428.8,8.03,-10.15,-10.49,0,*78
1500760853.59,44767,22.88,74430.8,8.03,-10.15,-10.35,0,*72
1500760854.82,44768,22.88,74430.0,8.03,-10.19,-10.31,0,*75
1500760856.02,44769,22.88,74434.5,8.05,-10.19,-10.49,0,*7D
1500760857.25,44770,22.88,74432.0,8.03,-10.23,-10.57,0,*75
1500760858.45,44771,22.94,74432.3,8.05,-10.19,-10.49,0,*74
1500760859.65,44772,22.88,74428.8,8.05,-10.45,-10.57,0,*71
1500760860.88,44773,22.88,74428.5,8.05,-10.31,-10.63,0,*74
1500760862.1,44774,22.88,74432.8,8.03,-10.23,-10.57,0,*71
1500760863.33,44775,22.94,74434.3,8.05,-10.35,-10.71,0,*75
1500760864.53,44776,22.88,74432.8,8.05,-10.35,-10.85,0,*7D
1500760865.78,44777,22.88,74428.5,8.03,-10.45,-10.75,0,*72
1500760867.03,44778,22.88,74434.5,8.03,-10.45,-10.71,0,*79
1500760868.25,44779,22.88,74434.5,8.05,-10.45,-10.71,0,*7E
1500760869.47,44780,22.88,74430.3,8.05,-10.45,-10.75,0,*7C
1500760870.72,44781,22.88,74428.8,8.03,-10.45,-10.75,0,*7B
1500760871.94,44782,22.88,74434.3,8.05,-10.45,-10.75,0,*7E
1500760873.16,44783,22.88,74434.0,8.05,-10.45,-10.71,0,*7B
1500760874.38,44784,22.88,74432.5,8.03,-10.45,-10.85,0,*71
1500760875.61,44785,22.88,74434.5,8.03,-10.35,-10.85,0,*77
1500760876.86,44786,22.88,74430.5,8.03,-10.35,-10.71,0,*7F
1500760878.09,44787,22.88,74428.0,8.05,-10.45,-10.75,0,*7B
1500760879.31,44788,22.88,74432.0,8.03,-10.49,-10.85,0,*71
1500760880.53,44789,22.88,74436.8,8.03,-10.57,-10.89,0,*73
1500760881.73,44790,22.88,74432.3,8.05,-10.49,-10.97,0,*7D
1500760882.93,44791,22.88,74434.8,8.05,-10.57,-10.89,0,*7C
1500760884.15,44792,22.88,74432.0,8.05,-10.31,-10.71,0,*78
1500760885.38,44793,22.88,74428.3,8.05,-10.31,-10.63,0,*7A
1500760886.6,44794,22.88,74428.0,8.05,-10.23,-10.63,0,*7E
1500760887.81,44795,22.88,74428.3,8.05,-10.19,-10.57,0,*71
1500760889.02,44796,22.94,74430.3,8.05,-10.45,-10.71,0,*7F
1500760890.25,44797,22.88,74428.8,8.05,-10.63,-11.01,0,*7C
1500760891.48,44798,22.88,74434.0,8.05,-10.63,-11.01,0,*73
1500760892.7,44799,22.88,74434.5,8.05,-10.63,-11.01,0,*72
1500760893.93,44800,22.88,74432.3,8.07,-10.57,-10.97,0,*76
1500760895.15,44801,22.88,74430.3,8.07,-10.45,-11.01,0,*7A
1500760896.39,44802,22.88,74430.0,8.07,-10.53,-10.71,0,*78
1500760897.63,44803,22.88,74426.8,8.07,-10.71,-11.01,0,*7F
1500760898.86,44804,22.88,74428.8,8.07,-10.57,-10.93,0,*76
1500760900.11,44805,22.88,74432.0,8.07,-10.67,-10.97,0,*70
1500760901.33,44806,22.88,74432.8,8.07,-10.45,-10.97,0,*73
1500760902.58,44807,22.88,74430.3,8.07,-10.79,-11.23,0,*73
1500760903.83,44808,22.88,74430.5,8.07,-10.71,-10.97,0,*7A
1500760905.08,44809,22.88,74428.5,8.07,-10.71,-10.97,0,*7B
1500760906.31,44810,22.88,74430.3,8.09,-10.75,-11.11,0,*76
1500760907.53,44811,22.88,74428.8,8.09,-10.79,-11.19,0,*73
1500760908.75,44812,22.88,74428.3,8.07,-10.85,-10.97,0,*7A
1500760909.97,44813,22.88,74428.0,8.07,-10.85,-11.15,0,*70
1500760911.17,44814,22.88,74428.0,8.09,-10.89,-11.23,0,*70
1500760912.41,44815,22.88,74430.3,8.07,-11.01,-11.51,0,*7B
1500760913.66,44816,22.88,74434.3,8.07,-11.11,-11.51,0,*79
1500760914.88,44817,22.88,74428.8,8.09,-10.97,-11.37,0,*79
1500760916.13,44818,22.88,74428.3,8.07,-11.01,-11.37,0,*76
1500760917.38,44819,22.88,74428.0,8.07,-11.01,-11.37,0,*77
1500760918.63,44820,22.88,74428.5,8.07,-11.01,-11.51,0,*7D
1500760919.87,44821,22.88,74432.8,8.07,-11.15,-11.51,0,*79
1500760921.09,44822,22.88,74428.0,8.05,-11.07,-11.41,0,*7A
1500760922.29,44823,22.88,74430.8,8.05,-11.15,-11.45,0,*7C
1500760923.49,44824,22.88,74428.3,8.05,-11.15,-11.45,0,*7B
1500760924.75,44825,22.88,74432.0,8.03,-10.97,-11.29,0,*7D
1500760925.97,44826,22.88,74426.0,8.05,-11.01,-11.33,0,*7D
1500760927.21,44827,22.88,74428.8,8.05,-11.07,-11.33,0,*7A
1500760928.43,44828,22.88,74428.5,8.05,-11.19,-11.55,0,*7A
1500760929.65,44829,22.88,74430.5,8.05,-11.19,-11.55,0,*7B
1500760930.85,44830,22.88,74430.3,8.05,-11.15,-11.41,0,*7A
1500760932.09,44831,22.88,74432.5,8.07,-11.01,-11.37,0,*7D
1500760933.34,44832,22.88,74428.8,8.05,-11.07,-11.33,0,*7E
1500760934.54,44833,22.88,74432.0,8.05,-11.01,-11.19,0,*71
1500760935.74,44834,22.88,74428.0,8.05,-11.15,-11.41,0,*7E
1500760936.96,44835,22.88,74434.8,8.03,-11.19,-11.45,0,*71
1500760938.18,44836,22.88,74432.0,8.05,-11.15,-11.29,0,*72
1500760939.46,44837,22.88,74430.0,8.03,-11.07,-11.33,0,*7D
1500760940.68,44838,22.88,74430.0,8.05,-11.33,-11.45,0,*72
1500760941.9,44839,22.88,74432.3,8.05,-11.41,-11.59,0,*7B
1500760943.13,44840,22.88,74428.5,8.05,-11.29,-11.41,0,*72
1500760944.35,44841,22.88,74434.3,8.05,-11.15,-11.33,0,*79
1500760945.57,44842,22.88,74426.8,8.05,-11.33,-11.45,0,*7F
1500760946.8,44843,22.88,74428.5,8.05,-11.41,-11.55,0,*7A
1500760948.03,44844,22.88,74434.5,8.05,-11.29,-11.41,0,*76
1500760949.25,44845,22.88,74432.5,8.05,-11.33,-11.41,0,*7C
1500760950.47,44846,22.88,74428.5,8.05,-11.15,-11.33,0,*7E
1500760951.69,44847,22.88,74428.5,8.05,-11.19,-11.29,0,*78
1500760952.91,44848,22.88,74428.5,8.05,-11.33,-11.41,0,*71
1500760954.11,44849,22.88,74432.0,8.05,-11.45,-11.45,0,*75
1500760955.39,44850,22.88,74434.8,8.03,-11.29,-11.33,0,*70
1500760956.62,44851,22.88,74428.0,8.05,-11.45,-11.55,0,*7D
1500760957.84,44852,22.88,74432.8,8.05,-11.33,-11.45,0,*7E
1500760959.04,44853,22.88,74432.3,8.05,-11.01,-11.19,0,*77
1500760960.28,44854,22.88,74434.8,8.05,-11.33,-11.33,0,*79
1500760961.53,44855,22.88,74428.0,8.05,-11.33,-11.33,0,*78
1500760962.8,44856,22.88,74428.0,8.07,-11.29,-11.29,0,*79
1500760964.02,44857,22.88,74430.8,8.05,-11.45,-11.33,0,*7B
1500760965.27,44858,22.88,74432.0,8.05,-11.33,-11.29,0,*7E
1500760966.53,44859,22.88,74430.8,8.03,-11.41,-11.29,0,*7C
1500760967.75,44860,22.88,74428.0,8.05,-11.45,-11.33,0,*7F
1500760968.98,44861,22.88,74430.3,8.05,-11.59,-11.45,0,*72
1500760970.23,44862,22.88,74432.0,8.03,-11.59,-11.41,0,*73
1500760971.48,44863,22.88,74436.8,8.05,-11.59,-11.55,0,*71
1500760972.7,44864,22.88,74430.3,8.05,-11.45,-11.33,0,*7B
1500760973.93,44865,22.88,74428.8,8.05,-11.29,-11.01,0,*71
1500760975.15,44866,22.88,74432.8,8.05,-11.45,-11.33,0,*79
1500760976.38,44867,22.88,74432.8,8.05,-11.41,-11.29,0,*77
1500760977.58,44868,22.88,74428.8,8.05,-11.41,-11.19,0,*7B
1500760978.81,44869,22.88,74432.0,8.05,-11.41,-11.29,0,*79
1500760980.03,44870,22.88,74434.3,8.05,-11.33,-11.19,0,*77
1500760981.25,44871,22.88,74432.0,8.05,-11.33,-11.19,0,*76
1500760982.47,44872,22.88,74434.3,8.05,-11.45,-11.33,0,*7C
1500760983.69,44873,22.88,74430.8,8.05,-11.67,-11.45,0,*7C
1500760984.92,44874,22.88,74434.8,8.05,-11.45,-11.33,0,*7A
1500760986.15,44875,22.88,74428.0,8.05,-11.45,-11.29,0,*70
1500760987.35,44876,22.88,74428.0,8.05,-11.45,-11.19,0,*70
1500760988.6,44877,22.88,74430.8,8.05,-11.55,-11.07,0,*7F
1500760989.85,44878,22.88,74426.8,8.05,-11.55,-11.29,0,*7C
1500760991.12,44879,22.88,74434.3,8.07,-11.63,-11.29,0,*7A
1500760992.37,44880,22.88,74434.5,8.05,-11.67,-11.29,0,*7A
1500760993.62,44881,22.88,74434.8,8.05,-11.73,-11.29,0,*7E
1500760994.86,44882,22.88,74432.5,8.05,-11.67,-11.33,0,*73
1500760996.1,44883,22.88,74430.5,8.05,-11.67,-11.33,0,*72
1500760997.38,44884,22.88,74434.0,8.03,-11.73,-11.29,0,*7D
1500760998.61,44885,22.88,74428.3,8.05,-11.73,-11.33,0,*71
1500760999.83,44886,22.88,74432.0,8.05,-11.81,-11.41,0,*7A
1500761001.06,44887,22.88,74432.8,8.05,-11.73,-11.41,0,*76
1500761002.29,44888,22.88,74438.0,8.05,-11.81,-11.33,0,*71
1500761003.52,44889,22.88,74436.8,8.05,-11.85,-11.41,0,*71
1500761004.78,44890,22.88,74434.3,8.03,-11.81,-11.33,0,*7E
1500761006.02,44891,22.88,74432.8,8.05,-11.81,-11.33,0,*79
1500761007.3,44892,22.88,74434.8,8.03,-11.73,-11.29,0,*7A
1500761008.53,44893,22.88,74434.3,8.05,-11.81,-11.33,0,*7B
1500761009.78,44894,22.88,74430.5,8.05,-11.73,-11.29,0,*7A
1500761011.03,44895,22.88,74436.8,8.03,-11.67,-11.19,0,*7B
1500761012.23,44896,22.88,74430.0,8.05,-11.45,-10.85,0,*7A
1500761013.44,44897,22.88,74432.0,8.05,-11.55,-10.85,0,*7A
1500761014.67,44898,22.88,74432.8,8.05,-11.59,-10.97,0,*7A
1500761015.87,44899,22.88,74432.5,8.05,-11.45,-10.85,0,*75
1500761017.07,44900,22.88,74430.3,8.05,-11.41,-10.85,0,*70
1500761018.3,44901,22.88,74430.8,8.05,-11.41,-10.75,0,*7E
1500761019.49,44902,22.88,74430.8,8.05,-11.45,-10.85,0,*76
1500761020.73,44903,22.88,74428.5,8.09,-11.45,-10.79,0,*78
1500761021.95,44904,22.88,74432.0,8.05,-11.59,-10.89,0,*71
1500761023.2,44905,22.88,74428.8,8.09,-11.51,-10.79,0,*7B
1500761024.48,44906,22.88,74430.3,8.07,-11.55,-10.79,0,*72
1500761025.72,44907,22.88,74432.8,8.07,-11.63,-10.85,0,*75
1500761026.96,44908,22.88,74428.0,8.07,-11.63,-10.85,0,*7A
1500761028.21,44909,22.88,74434.3,8.07,-11.81,-10.97,0,*74
1500761029.45,44910,22.88,74428.5,8.07,-11.77,-10.93,0,*71
1500761030.71,44911,22.88,74432.3,8.09,-11.63,-10.75,0,*73
1500761031.96,44912,22.88,74432.8,8.07,-11.77,-10.93,0,*73
1500761033.23,44913,22.88,74434.5,8.07,-11.51,-10.79,0,*72
1500761034.47,44914,22.88,74424.0,8.07,-11.63,-10.85,0,*77
1500761035.71,44915,22.88,74430.3,8.07,-11.77,-10.85,0,*73
1500761036.93,44916,22.88,74432.0,8.09,-11.51,-10.53,0,*71
1500761038.19,44917,22.88,74428.0,8.09,-11.63,-10.79,0,*79
1500761039.43,44918,22.88,74432.5,8.07,-11.81,-10.93,0,*70
1500761040.67,44919,22.88,74428.8,8.07,-11.77,-10.85,0,*7F
1500761041.93,44920,22.88,74428.8,8.09,-11.63,-10.79,0,*7D
1500761043.18,44921,22.88,74432.8,8.07,-11.77,-10.97,0,*77
1500761044.43,44922,22.88,74430.8,8.07,-11.93,-11.01,0,*70
1500761045.68,44923,22.88,74430.0,8.09,-11.63,-10.79,0,*7E
1500761046.96,44924,22.88,74430.5,8.07,-11.67,-10.67,0,*7C
1500761048.2,44925,22.88,74424.5,8.07,-11.67,-10.85,0,*71
1500761049.46,44926,22.88,74430.8,8.09,-11.77,-10.79,0,*7E
1500761050.7,44927,22.88,74430.3,8.07,-11.81,-10.97,0,*78
1500761051.96,44928,22.88,74430.3,8.09,-11.77,-10.75,0,*7C
1500761053.2,44929,22.88,74428.0,8.09,-11.73,-10.79,0,*75
1500761054.44,44930,22.88,74430.3,8.09,-11.89,-10.97,0,*78
1500761055.66,44931,22.88,74428.5,8.09,-11.77,-10.89,0,*77
1500761056.9,44932,22.88,74428.0,8.07,-11.81,-10.93,0,*78
1500761058.17,44933,22.88,74430.3,8.07,-11.81,-10.79,0,*7D
1500761059.39,44934,22.88,74428.5,8.09,-11.89,-10.85,0,*7F
1500761060.63,44935,22.88,74428.5,8.07,-11.77,-10.85,0,*71
1500761061.9,44936,22.88,74424.3,8.07,-11.77,-10.79,0,*71
1500761063.14,44937,22.88,74428.5,8.07,-11.81,-10.85,0,*7A
1500761064.41,44938,22.88,74426.8,8.07,-11.81,-10.79,0,*76
1500761065.66,44939,22.88,74428.0,8.07,-11.93,-10.85,0,*77
1500761066.9,44940,22.88,74432.8,8.07,-11.93,-10.85,0,*79
1500761068.17,44941,22.88,74428.5,8.07,-11.81,-10.71,0,*70
1500761069.39,44942,22.88,74434.5,8.09,-11.85,-10.93,0,*75
1500761070.64,44943,22.88,74432.0,8.07,-11.89,-10.93,0,*76
1500761071.91,44944,22.88,74434.3,8.07,-11.81,-10.79,0,*7D
1500761073.13,44945,22.88,74428.0,8.05,-11.85,-10.85,0,*79
1500761074.33,44946,22.88,74434.3,8.09,-12.03,-10.89,0,*77
1500761075.58,44947,22.88,74434.0,8.09,-11.89,-10.79,0,*78
1500761076.83,44948,22.88,74434.3,8.07,-11.97,-10.97,0,*76
1500761078.08,44949,22.88,74438.5,8.07,-12.07,-10.97,0,*7D
1500761079.3,44950,22.88,74432.8,8.05,-12.11,-11.01,0,*7E
1500761080.55,44951,22.88,74434.5,8.07,-12.07,-10.97,0,*74
1500761081.81,44952,22.88,74434.5,8.07,-12.07,-10.97,0,*77
1500761083.09,44953,22.88,74436.8,8.07,-11.93,-10.79,0,*78
1500761084.28,44954,22.88,74434.5,8.05,-12.03,-10.89,0,*78
1500761085.51,44955,22.88,74430.3,8.05,-12.11,-10.97,0,*75
1500761086.74,44956,22.88,74430.3,8.05,-12.11,-10.97,0,*76
1500761087.99,44957,22.88,74434.5,8.05,-11.93,-10.71,0,*76
1500761089.25,44958,22.88,74432.8,8.03,-11.93,-10.89,0,*78
1500761090.47,44959,22.88,74430.5,8.05,-11.93,-10.85,0,*73
1500761091.7,44960,22.88,74432.3,8.03,-12.03,-10.89,0,*79
1500761092.89,44961,22.88,74436.0,8.05,-12.03,-10.89,0,*7E
1500761094.15,44962,22.88,74428.3,8.03,-12.11,-10.97,0,*77
1500761095.38,44963,22.88,74434.8,8.05,-12.11,-10.97,0,*70
1500761096.64,44964,22.88,74432.3,8.03,-12.11,-10.97,0,*71
1500761097.87,44965,22.88,74434.0,8.03,-12.03,-10.97,0,*73
1500761099.09,44966,22.88,74432.0,8.03,-12.03,-10.89,0,*7F
1500761100.32,44967,22.88,74432.8,8.03,-12.03,-10.89,0,*7E
1500761101.54,44968,22.88,74432.3,8.03,-12.03,-10.89,0,*71
1500761102.77,44969,22.88,74436.3,8.03,-12.03,-10.89,0,*70
1500761103.99,44970,22.88,74432.8,8.03,-12.03,-10.85,0,*74
1500761105.21,44971,22.88,74432.8,8.03,-12.03,-10.89,0,*79
1500761106.47,44972,22.88,74434.8,8.03,-12.11,-10.89,0,*79
1500761107.69,44973,22.88,74428.0,8.01,-12.15,-10.93,0,*75
1500761108.9,44974,22.88,74432.0,8.01,-12.03,-10.93,0,*75
1500761110.12,44975,22.88,74428.5,8.01,-11.97,-10.89,0,*71
1500761111.35,44976,22.88,74434.3,8.01,-12.07,-10.93,0,*73
1500761112.58,44977,22.88,74434.3,8.01,-12.07,-10.93,0,*72
1500761113.81,44978,22.88,74428.5,8.01,-12.07,-10.89,0,*76
1500761115.04,44979,22.88,74432.5,8.01,-12.07,-10.93,0,*7C
1500761116.27,44980,22.88,74428.5,8.01,-12.11,-10.97,0,*79
1500761117.47,44981,22.88,74434.0,8.01,-12.03,-10.89,0,*74
1500761118.72,44982,22.88,74434.0,7.99,-12.07,-10.97,0,*72
1500761119.95,44983,22.88,74432.8,7.99,-12.03,-10.93,0,*73
1500761121.17,44984,22.88,74436.8,8.01,-11.97,-10.89,0,*7F
1500761122.45,44985,22.88,74438.0,7.99,-11.89,-10.79,0,*70
1500761123.7,44986,22.88,74438.8,7.99,-11.93,-10.85,0,*7B
1500761124.96,44987,22.88,74434.0,7.99,-11.93,-10.97,0,*79
1500761126.23,44988,22.88,74430.0,7.99,-11.89,-10.79,0,*7D
1500761127.51,44989,22.88,74430.5,7.99,-11.77,-10.67,0,*72
1500761128.79,44990,22.88,74432.8,7.99,-11.77,-10.67,0,*7A
1500761130.07,44991,22.88,74428.0,7.99,-11.77,-10.67,0,*7B
1500761131.3,44992,22.88,74426.5,8.01,-11.67,-10.53,0,*70
1500761132.55,44993,22.88,74430.0,7.99,-11.67,-10.57,0,*7B
1500761133.81,44994,22.88,74426.3,7.99,-11.55,-10.53,0,*79
1500761135.03,44995,22.88,74424.3,8.01,-11.51,-10.49,0,*79
1500761136.26,44996,22.88,74426.5,8.01,-11.63,-10.53,0,*70
1500761137.49,44997,22.88,74426.0,8.01,-11.63,-10.53,0,*71
1500761138.74,44998,22.88,74428.0,7.99,-11.51,-10.53,0,*71
1500761139.97,44999,22.88,74428.5,8.01,-11.59,-10.49,0,*7D
1500761141.2,45000,22.88,74424.8,8.01,-11.63,-10.53,0,*77
1500761142.45,45001,22.88,74424.8,7.99,-11.67,-10.57,0,*78
1500761143.68,45002,22.88,74428.0,8.01,-11.63,-10.53,0,*75
1500761144.94,45003,22.88,74426.5,8.01,-11.63,-10.67,0,*73
1500761146.2,45004,22.88,74426.3,8.01,-11.77,-10.67,0,*71
1500761147.45,45005,22.88,74428.0,8.01,-11.73,-10.67,0,*74
1500761148.71,45006,22.88,74428.0,8.01,-11.67,-10.67,0,*72
1500761149.97,45007,22.88,74428.3,8.01,-11.63,-10.75,0,*74
1500761151.22,45008,22.88,74430.3,8.01,-11.73,-10.75,0,*7A
1500761152.44,45009,22.88,74430.5,8.01,-11.77,-10.89,0,*7C
1500761153.67,45010,22.88,74432.3,8.01,-11.77,-10.93,0,*7F
1500761154.92,45011,22.88,74428.3,8.01,-11.73,-10.79,0,*7E
1500761156.17,45012,22.88,74434.0,7.99,-11.81,-10.97,0,*7E
1500761157.4,45013,22.88,74432.5,8.01,-11.77,-11.01,0,*76
1500761158.67,45014,22.88,74432.0,7.99,-11.81,-11.07,0,*70
1500761159.92,45015,22.88,74434.5,7.99,-11.77,-10.93,0,*74
1500761161.19,45016,22.88,74432.3,7.99,-11.81,-11.07,0,*72
1500761162.42,45017,22.88,74438.0,8.01,-11.77,-10.93,0,*78
1500761163.67,45018,22.88,74432.0,7.99,-11.77,-10.97,0,*7D
1500761164.95,45019,22.88,74434.3,7.99,-11.81,-11.07,0,*7D
1500761166.17,45020,22.88,74438.5,8.01,-11.77,-11.01,0,*76
1500761167.42,45021,22.88,74438.3,7.99,-11.51,-10.57,0,*7F
1500761168.65,45022,22.88,74434.5,7.97,-11.51,-10.57,0,*72
1500761169.91,45023,22.88,74428.0,7.97,-11.37,-10.67,0,*70
1500761171.17,45024,22.88,74420.5,7.99,-11.41,-10.67,0,*78
1500761172.42,45025,22.88,74428.5,7.99,-11.29,-10.57,0,*74
1500761173.63,45026,22.88,74426.5,8.01,-11.23,-10.53,0,*77
1500761174.88,45027,22.88,74428.8,7.99,-11.41,-10.71,0,*7C
1500761176.16,45028,22.88,74426.8,7.99,-11.37,-10.67,0,*75
1500761177.36,45029,22.88,74434.5,7.97,-11.23,-10.45,0,*7F
1500761178.62,45030,22.88,74430.3,7.99,-11.29,-10.57,0,*70
1500761179.9,45031,22.88,74428.3,7.99,-11.37,-10.67,0,*7D
1500761181.18,45032,22.88,74426.3,7.99,-11.29,-10.71,0,*76
1500761182.43,45033,22.88,74426.0,8.01,-11.33,-10.75,0,*76
1500761183.7,45034,22.88,74424.8,7.99,-11.37,-10.71,0,*7F
1500761184.98,45035,22.88,74424.3,7.99,-11.29,-10.79,0,*79
1500761186.24,45036,22.88,74426.0,8.01,-11.33,-10.67,0,*70
1500761187.5,45037,22.88,74428.5,8.01,-11.33,-10.67,0,*71
1500761188.78,45038,22.88,74430.8,7.99,-11.29,-10.79,0,*74
1500761190.04,45039,22.88,74428.5,7.99,-11.55,-10.97,0,*7E
1500761191.26,45040,22.88,74430.8,8.01,-11.37,-10.89,0,*75
1500761192.51,45041,22.88,74432.3,8.01,-11.37,-10.79,0,*7B
1500761193.76,45042,22.88,74430.0,7.99,-11.37,-10.93,0,*72
1500761194.99,45043,22.88,74424.0,8.01,-11.37,-11.01,0,*77
1500761196.2,45044,22.88,74424.5,8.01,-11.45,-10.89,0,*74
1500761197.43,45045,22.88,74426.0,8.01,-11.45,-11.07,0,*72
1500761198.66,45046,22.88,74420.8,7.99,-11.23,-10.97,0,*77
1500761199.95,45047,22.88,74426.0,7.99,-11.29,-10.67,0,*73
1500761201.17,45048,22.88,74426.8,8.01,-11.19,-10.75,0,*72
1500761202.4,45049,22.88,74426.3,8.01,-11.23,-10.79,0,*76
1500761203.65,45050,22.88,74428.5,7.99,-11.37,-11.01,0,*7B
1500761204.88,45051,22.88,74430.8,8.01,-11.33,-10.93,0,*7A
1500761206.14,45052,22.88,74432.3,7.99,-11.29,-10.97,0,*78
1500761207.39,45053,22.88,74424.8,8.01,-11.07,-10.75,0,*77
1500761208.62,45054,22.88,74430.3,7.99,-11.15,-10.97,0,*71
1500761209.9,45055,22.88,74430.0,7.99,-11.37,-11.07,0,*78
1500761211.1,45056,22.88,74430.8,8.01,-11.23,-10.93,0,*7C
1500761212.33,45057,22.88,74426.3,7.99,-11.15,-10.97,0,*72
1500761213.61,45058,22.88,74432.0,7.99,-11.29,-11.07,0,*7A
1500761214.83,45059,22.88,74428.3,8.01,-11.37,-11.11,0,*7D
1500761216.09,45060,22.88,74434.8,8.01,-11.33,-11.07,0,*74
1500761217.36,45061,22.88,74428.0,7.99,-11.51,-11.29,0,*73
1500761218.56,45062,22.88,74430.3,8.01,-11.23,-11.11,0,*70
1500761219.79,45063,22.88,74428.8,8.01,-11.37,-11.23,0,*75
1500761220.99,45064,22.88,74430.8,8.01,-11.23,-11.11,0,*76
1500761222.26,45065,22.88,74432.0,7.99,-11.51,-11.37,0,*78
1500761223.53,45066,22.88,74426.0,7.99,-11.51,-11.37,0,*7B
1500761224.77,45067,22.88,74424.5,8.01,-11.37,-11.33,0,*70
1500761226.02,45068,22.88,74430.5,7.99,-11.41,-11.29,0,*7B
1500761227.29,45069,22.88,74428.0,7.99,-11.51,-11.37,0,*74
1500761228.54,45070,22.88,74428.0,8.01,-11.37,-11.33,0,*76
1500761229.81,45071,22.88,74424.5,7.99,-11.37,-11.29,0,*72
1500761231.06,45072,22.88,74424.5,7.99,-11.23,-11.07,0,*78
1500761232.32,45073,22.88,74424.5,7.99,-11.41,-11.29,0,*71
1500761233.56,45074,22.88,74430.5,7.99,-11.41,-11.37,0,*79
1500761234.81,45075,22.88,74430.8,8.01,-11.33,-11.33,0,*77
1500761236.06,45076,22.88,74428.8,8.01,-11.37,-11.37,0,*74
1500761237.28,45077,22.88,74430.5,8.01,-11.51,-11.45,0,*70
1500761238.53,45078,22.88,74428.8,8.01,-11.37,-11.37,0,*7A
1500761239.74,45079,22.88,74428.5,8.01,-11.41,-11.41,0,*7B
1500761240.96,45080,22.88,74428.5,8.01,-11.51,-11.45,0,*78
1500761242.23,45081,22.88,74424.8,7.99,-11.51,-11.51,0,*72
1500761243.45,45082,22.88,74428.3,7.99,-11.23,-11.11,0,*70
1500761244.71,45083,22.88,74428.8,7.99,-11.23,-11.29,0,*7A
1500761245.96,45084,22.88,74426.3,7.99,-10.97,-10.79,0,*77
1500761247.21,45085,22.88,74426.3,7.99,-11.37,-11.41,0,*77
1500761248.43,45086,22.88,74432.0,8.01,-11.51,-11.45,0,*7E
1500761249.66,45087,22.88,74428.8,8.01,-11.23,-11.33,0,*7B
1500761250.86,45088,22.88,74430.5,8.01,-11.11,-10.89,0,*75
1500761252.08,45089,22.88,74426.8,8.01,-11.23,-11.37,0,*71
1500761253.31,45090,22.88,74426.5,8.01,-11.41,-11.51,0,*7D
1500761254.56,45091,22.88,74424.0,7.99,-11.15,-11.07,0,*70
1500761255.81,45092,22.88,74428.5,7.99,-11.37,-11.41,0,*71
1500761257.04,45093,22.88,74430.3,8.01,-11.33,-11.45,0,*7E
1500761258.29,45094,22.88,74428.5,8.01,-11.37,-11.37,0,*78
1500761259.53,45095,22.88,74430.8,8.01,-11.33,-11.37,0,*7D
1500761260.76,45096,22.88,74428.3,8.01,-11.37,-11.45,0,*7F
1500761262.01,45097,22.88,74428.0,7.99,-11.29,-11.45,0,*7F
1500761263.27,45098,22.88,74432.3,8.01,-11.51,-11.63,0,*75
1500761264.51,45099,22.88,74430.5,8.01,-11.51,-11.59,0,*7D
1500761265.76,45100,22.88,74432.5,8.01,-11.51,-11.51,0,*74
1500761267.02,45101,22.88,74432.3,8.01,-11.51,-11.63,0,*74
1500761268.26,45102,22.88,74438.3,8.01,-11.59,-11.77,0,*7A
1500761269.51,45103,22.88,74436.3,8.01,-11.51,-11.51,0,*77
1500761270.76,45104,22.88,74436.3,8.01,-11.51,-11.73,0,*70
1500761272.01,45105,22.81,74428.5,8.01,-11.33,-11.37,0,*75
1500761273.26,45106,22.88,74430.5,8.01,-11.63,-11.73,0,*73
1500761274.51,45107,22.88,74434.3,8.01,-11.63,-11.73,0,*72
1500761275.77,45108,22.88,74438.8,8.01,-11.63,-11.89,0,*78
1500761277.03,45109,22.88,74440.8,8.01,-11.59,-11.63,0,*74
1500761278.25,45110,22.88,74432.5,8.01,-11.23,-11.51,0,*70
1500761279.5,45111,22.88,74430.8,8.01,-11.33,-11.33,0,*74
1500761280.74,45112,22.88,74428.5,8.01,-11.45,-11.63,0,*73
1500761281.99,45113,22.88,74438.5,8.01,-11.63,-11.73,0,*77
1500761283.24,45114,22.88,74438.3,8.01,-11.73,-11.89,0,*74
1500761284.49,45115,22.88,74438.8,8.01,-11.73,-11.89,0,*75
1500761285.74,45116,22.88,74436.8,8.01,-11.63,-11.85,0,*7B
1500761286.99,45117,22.88,74434.5,8.01,-11.63,-11.77,0,*77
1500761288.22,45118,22.88,74438.0,8.01,-11.77,-12.03,0,*7D
1500761289.47,45119,22.88,74438.3,8.01,-11.85,-12.15,0,*76
1500761290.72,45120,22.81,74434.5,8.01,-11.85,-12.15,0,*7C
1500761291.97,45121,22.88,74428.0,8.01,-11.85,-11.89,0,*7B
1500761293.22,45122,22.88,74432.0,8.01,-11.77,-11.89,0,*75
1500761294.45,45123,22.88,74434.5,8.01,-11.73,-12.03,0,*71
1500761295.7,45124,22.88,74434.3,8.01,-11.77,-11.89,0,*73
1500761296.92,45125,22.88,74436.5,8.01,-11.81,-12.21,0,*7A
1500761298.18,45126,22.88,74440.3,8.01,-11.89,-12.07,0,*75
1500761299.46,45127,22.88,74438.3,8.03,-11.93,-12.15,0,*7E
1500761300.71,45128,22.88,74436.5,8.01,-11.73,-11.97,0,*74
1500761301.95,45129,22.81,74432.0,8.01,-11.89,-12.15,0,*79
1500761303.21,45130,22.81,74432.3,8.01,-11.89,-12.07,0,*72